Terremoto di magnitudo ML 4.9 del 03-07-2013 ore 15:28:24 (Italia) in zona: Greece

Un terremoto di magnitudo ML 4.9 è avvenuto nella zona: Greece, il

  • 03-07-2013 13:28:24 (UTC)
  • 03-07-2013 15:28:24 (UTC +02:00) ora italiana

con coordinate geografiche (lat, lon) 40.37, 21.87 ad una profondità di 10 km.

Il terremoto è stato localizzato da: Sala Sismica INGV-Roma.

Ricerca terremoti: Qualsiasi nel raggio di 30 km

I valori delle coordinate ipocentrali e della magnitudo rappresentano la migliore stima con i dati a disposizione. Eventuali nuovi dati o analisi potrebbero far variare tali stime.

Visualizza la localizzazione con

Comuni entro 20 km dall'epicentro

Nessun comune italiano entro 20 km dall'epicentro.

Città più vicine con almeno 50000 abitanti

Nessun comune italiano entro 100 km dall'epicentro con almeno 50000 abitanti.

Sismicità recente e storica
Pericolosità sismica
Mappe di scuotimento
Mappa del risentimento sismico
Cronologia delle localizzazioni calcolate
Tipo Magnitudo Tempo origine (UTC) Latitudine Longitudine Profondità (km) Ora pubblicazione (UTC) Autore ID Localizzazione
Rev 100 ML 4.9 2013-07-03
13:28:24
40.37 21.87 10 2014-10-21
12:08:56
Sala Sismica INGV-Roma 3943511
Localizzazione e magnitudo preferite finora.
Parametri della localizzazione preferita

Localizzazione

Campo Valore
Tempo (UTC) 2013-07-03 13:28:24 ± 0.85
Latitudine 40.37 ± 0.07
Longitudine 21.87 ± 0.08
Profondità (km) 10 (operator assigned)
Metodo di valutazione manual
Stato della valutazione reviewed
Versione 100 -> SURVEY-INGV
Tipo di evento earthquake
ID localizzazione 3943511

Incertezze

Campo Valore
Tipo di incertezza uncertainty ellipse
Semi-asse maggiore dell'ellisse di confidenza (metri) 9440
Semi-asse minore dell'ellisse di confidenza (metri) 4580
azimuth dell’asse maggiore dell’ellisse di confidenza (gradi) 38
Regione di confidenza sul piano orizzontale espressa mediante singolo valore di incertezza (metri) 9440
Livello di confidenza dell'incertezza (%) 68

Qualità

Campo Valore
Maggiore gap azimutale nella distribuzione delle stazioni all'epicentro 340
Numero di fasi associato indipendentemente se utilizzate nella localizzazione (determinazione dell'Origin) 43
Numero di fasi 20
Scarto quadratico medio dei residui di tempo risultanti dal calcolo del tempo origine (Origin) della localizzazione (sec) 0.36
Distanza epicentrale della stazione piu' vicina (gradi) 0
Distanza epicentrale della stazione piu’ lontana (gradi) 5.1702
Numero di stazioni in cui l’evento e’ stato osservato 40
Numero di stazioni usate nel calcolo dell'Origin 18
Parametri della magnitudo

ML:4.9

Campo Valore
Valore 4.9
Incertezza 0.2
Num. stazioni usate 18
Tipo di magnitudo ML
Localizzazione di riferimento 3943511
Agenzia INGV
Autore Sala Sismica INGV-Roma
Tempo di creazione (UTC) 2013-07-03 13:39:28
Tempi di arrivo
SCNL Time Uncertainty Polarity Evaluation_mode Phase Azimuth Distance Takeoff_angle Residual Weight
IV.ASOL.HNZ. 2013-07-03T13:31:09.57 3.0 undecidable manual Pg 21.32 0
IV.MEU.SHZ. 2013-07-03T13:31:03.99 3.0 undecidable manual Sn -4.94 0
IV.ILLI.HHZ. 2013-07-03T13:30:47.99 3.0 undecidable manual Sg 9.85 0
IV.MTCE.HHZ. 2013-07-03T13:30:41.99 3.0 undecidable manual Sn 3.0307 -3.07 0
IV.SGRT.HHZ. 2013-07-03T13:30:31.58 0.6 undecidable manual S 289 4.8186 38 -0.05 48
IV.MSAG.HHZ. 2013-07-03T13:30:28.45 0.6 undecidable manual S 289 4.6882 38 -0.05 49
IV.MTCE.HHZ. 2013-07-03T13:30:14.51 3.0 negative manual Pg 3.0307 6.03 0
IV.NRCA.HHZ. 2013-07-03T13:30:08.89 3.0 positive manual Pn -1.55 0
IV.FIAM.HHZ. 2013-07-03T13:30:08.55 3.0 negative manual Pn 2.22 0
IV.TERO.HHZ. 2013-07-03T13:30:02.74 3.0 positive manual Pn -2.01 0
IV.FAGN.HHZ. 2013-07-03T13:30:01.66 3.0 positive manual Pn -0.49 0
IV.POFI.HHZ. 2013-07-03T13:29:59.05 3.0 negative manual Pn 1.36 0
IV.INTR.HHZ. 2013-07-03T13:29:58.58 3.0 negative manual Pn 1.01 0
IV.VVLD.HHZ. 2013-07-03T13:29:57.46 3.0 undecidable manual Pn -1.86 0
IV.CERA.HHZ. 2013-07-03T13:29:56.42 3.0 positive manual Pg 2.25 0
IV.LPEL.HHZ. 2013-07-03T13:29:55.99 3.0 positive manual Pn 0.62 0
IV.RNI2.HHZ. 2013-07-03T13:29:55.48 3.0 positive manual Pg 2.06 0
IV.VAGA.HHZ. 2013-07-03T13:29:52.96 3.0 negative manual Pn 1.67 0
IV.MIDA.HHZ. 2013-07-03T13:29:52.96 3.0 undecidable manual Pn 0.83 0
IV.SGG.HHZ. 2013-07-03T13:29:51.89 3.0 positive manual P 2.15 0
IV.BSSO.HHZ. 2013-07-03T13:29:49.37 3.0 negative manual P 0.98 0
IV.SACR.HHZ. 2013-07-03T13:29:48.17 3.0 undecidable manual Pg 1.6 0
IV.GATE.HHZ. 2013-07-03T13:29:47.10 3.0 negative manual P 1.85 0
IV.CIGN.HHZ. 2013-07-03T13:29:46.33 3.0 negative manual P 0.1 0
IV.MELA.HHZ. 2013-07-03T13:29:44.06 3.0 negative manual P -0.69 0
IV.MOCO.HHZ. 2013-07-03T13:29:43.30 0.1 undecidable manual P 283 5.1702 38 0.52 82
IV.CAFE.HHZ. 2013-07-03T13:29:41.73 0.3 positive manual P 280 5.0695 38 0.34 65
IV.SGTA.HHZ. 2013-07-03T13:29:40.82 0.3 negative manual P 281 4.984 38 0.61 61
IV.CDRU.HHZ. 2013-07-03T13:29:39.97 0.3 positive manual P 273 4.9966 38 -0.42 65
IV.BULG.HHZ. 2013-07-03T13:29:39.86 0.1 negative manual P 269 4.9643 38 -0.08 94
IV.MRLC.HHZ. 2013-07-03T13:29:39.16 0.3 negative manual P 277 4.8608 38 0.65 62
IV.MGR.HHZ. 2013-07-03T13:29:38.08 0.6 negative manual P 269 4.8249 38 0.07 48
IV.VULT.HHZ. 2013-07-03T13:29:38.05 0.3 positive manual P 279 4.7772 38 0.7 62
IV.SGRT.HHZ. 2013-07-03T13:29:37.55 0.1 negative manual P 289 4.8186 38 -0.38 91
IV.SLCN.HHZ. 2013-07-03T13:29:36.98 0.1 undecidable manual P 272 4.7493 38 0.01 99
IV.MCEL.HHZ. 2013-07-03T13:29:35.04 0.1 undecidable manual P 271 4.6234 38 -0.19 98
IV.MTSN.HHZ. 2013-07-03T13:29:35.17 0.6 negative manual P 271 4.6648 38 -0.63 43
IV.MSAG.HHZ. 2013-07-03T13:29:35.83 0.1 negative manual P 289 4.6882 38 -0.3 94
IV.SIRI.HHZ. 2013-07-03T13:29:34.17 0.1 undecidable manual P 270 4.582 38 -0.49 93
IV.ACER.HHZ. 2013-07-03T13:29:34.24 0.1 undecidable manual P 277 4.5191 38 0.45 94
IV.MRVN.HHZ. 2013-07-03T13:29:30.97 0.1 undecidable manual P 281 4.3536 38 -0.54 95
IV.MIGL.HHZ. 2013-07-03T13:29:29.53 0.3 positive manual P 275 4.1342 38 1.06 59
IV.AMUR.HHZ. 2013-07-03T13:29:26.50 0.1 negative manual P 279 4.0308 38 -0.54 100
Ampiezza e Magnitudo per ciascuna stazione
SCNL mag Generic_amplitude Period Type Category Unit Time_window_reference
IV.AMUR.HHN. ML:4.6 0.00153 0.52 AML other m 2013-07-03T13:30:15.21
IV.AMUR.HHE. ML:4.5 0.001405 1.56 AML other m 2013-07-03T13:30:15.34
IV.BSSO.HNE. ML:0 0.001083 0.74 AML other m 2013-07-03T13:31:04.56
IV.BSSO.HHE. ML:0 0.000443 1.06 AML other m 2013-07-03T13:31:06.09
IV.BSSO.HHN. ML:0 0.000528 0.66 AML other m 2013-07-03T13:31:08.58
IV.BSSO.HNN. ML:0 0.001265 0.64 AML other m 2013-07-03T13:31:08.25
IV.BULG.HHE. ML:4.8 0.001255 0.72 AML other m 2013-07-03T13:30:41.66
IV.BULG.HNE. ML:4.8 0.00121 0.7 AML other m 2013-07-03T13:30:42.02
IV.BULG.HNN. ML:4.9 0.001615 1.54 AML other m 2013-07-03T13:30:45.73
IV.BULG.HHN. ML:4.9 0.00169 1.54 AML other m 2013-07-03T13:30:44.96
IV.CAFE.HHE. ML:4.9 0.00167 0.7 AML other m 2013-07-03T13:30:14.71
IV.CAFE.HNN. ML:4.7 0.00097 1.38 AML other m 2013-07-03T13:30:41.25
IV.CAFE.HNE. ML:4.9 0.00161 0.72 AML other m 2013-07-03T13:30:14.71
IV.CAFE.HHN. ML:4.6 0.000879 0.88 AML other m 2013-07-03T13:30:51.07
IV.CDRU.HHN. ML:4.3 0.0004525 1.58 AML other m 2013-07-03T13:29:50.21
IV.CDRU.HHE. ML:4.7 0.0009645 0.44 AML other m 2013-07-03T13:30:40.91
IV.CERA.HNN. ML:0 0.00199 0.74 AML other m 2013-07-03T13:30:02.94
IV.CERA.HHN. ML:0 0.00208 0.74 AML other m 2013-07-03T13:30:02.94
IV.CERA.HHE. ML:0 0.00292 1.46 AML other m 2013-07-03T13:31:13.44
IV.CERA.HNE. ML:0 0.002825 1.44 AML other m 2013-07-03T13:31:13.45
IV.CIGN.HHE. ML:0 0.0013 1 AML other m 2013-07-03T13:31:05.21
IV.CIGN.HHN. ML:0 0.00112 1.36 AML other m 2013-07-03T13:31:01.94
IV.FAGN.HHN. ML:0 0.002365 1.48 AML other m 2013-07-03T13:31:22.74
IV.FAGN.HHE. ML:0 0.003355 0.68 AML other m 2013-07-03T13:31:30.47
IV.GATE.HNE. ML:5 0.001605 0.6 AML other m 2013-07-03T13:31:05.62
IV.GATE.HHE. ML:4.9 0.001285 0.46 AML other m 2013-07-03T13:29:52.91
IV.GATE.HHN. ML:5 0.001705 1.56 AML other m 2013-07-03T13:30:59.47
IV.GATE.HNN. ML:5 0.00171 1.58 AML other m 2013-07-03T13:30:59.47
IV.INTR.HHE. ML:0 0.00212 0.82 AML other m 2013-07-03T13:31:18.62
IV.INTR.HHN. ML:0 0.002945 1.26 AML other m 2013-07-03T13:31:22.42
IV.LPEL.HHE. ML:0 0.00261 1.38 AML other m 2013-07-03T13:31:08.05
IV.LPEL.HHN. ML:0 0.00171 1.16 AML other m 2013-07-03T13:31:09.28
IV.MCEL.HNE. ML:4.6 0.00117 0.62 AML other m 2013-07-03T13:30:41.03
IV.MCEL.HHE. ML:4.6 0.0011785 0.98 AML other m 2013-07-03T13:30:41.03
IV.MCEL.HHN. ML:4.8 0.00155 0.56 AML other m 2013-07-03T13:30:36.73
IV.MCEL.HNN. ML:4.8 0.0015 0.58 AML other m 2013-07-03T13:30:37.02
IV.MELA.HHN. ML:5.4 0.004075 0.96 AML other m 2013-07-03T13:30:56.89
IV.MELA.HNE. ML:5.3 0.003455 1 AML other m 2013-07-03T13:30:57.25
IV.MELA.HHE. ML:5.3 0.003565 1 AML other m 2013-07-03T13:30:57.25
IV.MELA.HNN. ML:5.4 0.003975 0.94 AML other m 2013-07-03T13:30:56.89
IV.MGR.HHE. ML:4.6 0.001003 0.64 AML other m 2013-07-03T13:30:42.67
IV.MGR.HHN. ML:4.7 0.00107 1.48 AML other m 2013-07-03T13:30:44.62
IV.MIDA.HHN. ML:0 0.001495 1.54 AML other m 2013-07-03T13:31:09.23
IV.MIDA.HHE. ML:0 0.00146 1.58 AML other m 2013-07-03T13:31:05.20
IV.MIDA.HNN. ML:0 0.0015615 1.54 AML other m 2013-07-03T13:31:05.93
IV.MIDA.HNE. ML:0 0.00138 0.76 AML other m 2013-07-03T13:31:05.18
IV.MIGL.HHN. ML:5.2 0.005655 0.94 AML other m 2013-07-03T13:30:29.44
IV.MIGL.HHE. ML:5.2 0.00629 0.7 AML other m 2013-07-03T13:30:39.50
IV.MOCO.HNE. ML:4.9 0.0015655 0.94 AML other m 2013-07-03T13:31:01.23
IV.MOCO.HHN. ML:4.7 0.000941 1.54 AML other m 2013-07-03T13:30:58.07
IV.MOCO.HNN. ML:4.7 0.0009235 1.54 AML other m 2013-07-03T13:30:57.30
IV.MOCO.HHE. ML:4.9 0.001595 0.94 AML other m 2013-07-03T13:31:01.23
IV.MRLC.HHN. ML:4.6 0.0008 0.98 AML other m 2013-07-03T13:30:46.88
IV.MRLC.HHE. ML:4.6 0.0008835 0.9 AML other m 2013-07-03T13:30:49.20
IV.MSAG.HHN. ML:5.3 0.00563 0.96 AML other m 2013-07-03T13:30:38.44
IV.MSAG.HNE. ML:5.1 0.00329 1.54 AML other m 2013-07-03T13:30:32.53
IV.MSAG.HHE. ML:5.1 0.003315 0.8 AML other m 2013-07-03T13:30:34.48
IV.MSAG.HNN. ML:5.3 0.00553 0.94 AML other m 2013-07-03T13:30:38.92
IV.MTSN.HHE. ML:4.7 0.001335 0.8 AML other m 2013-07-03T13:30:50.67
IV.MTSN.HHN. ML:4.8 0.00145 1.58 AML other m 2013-07-03T13:30:48.68
IV.NRCA.HHN. ML:0 0.0008885 1.42 AML other m 2013-07-03T13:31:32.95
IV.NRCA.HHE. ML:0 0.0008015 0.62 AML other m 2013-07-03T13:31:34.46
IV.POFI.HHN. ML:0 0.0006035 0.96 AML other m 2013-07-03T13:31:29.09
IV.POFI.HHE. ML:0 0.000846 0.8 AML other m 2013-07-03T13:31:22.15
IV.RNI2.HHN. ML:0 0.00179 1.5 AML other m 2013-07-03T13:31:22.37
IV.RNI2.HNE. ML:0 0.00175 1.56 AML other m 2013-07-03T13:31:12.75
IV.RNI2.HHE. ML:0 0.001815 1.58 AML other m 2013-07-03T13:31:12.75
IV.RNI2.HNN. ML:0 0.001735 1.5 AML other m 2013-07-03T13:31:21.62
IV.SACR.HNN. ML:0 0.00095 0.8 AML other m 2013-07-03T13:30:53.74
IV.SACR.HHE. ML:0 0.00118 1.58 AML other m 2013-07-03T13:31:05.29
IV.SACR.HNE. ML:0 0.0027 1.58 AML other m 2013-07-03T13:29:57.62
IV.SACR.HHN. ML:0 0.000986 0.82 AML other m 2013-07-03T13:30:53.74
IV.SGG.HHE. ML:0 0.00243 0.58 AML other m 2013-07-03T13:29:57.86
IV.SGG.HHN. ML:0 0.001365 1.58 AML other m 2013-07-03T13:31:01.71
IV.SGRT.HHE. ML:5 0.00252 0.54 AML other m 2013-07-03T13:30:43.08
IV.SGRT.HHN. ML:5.2 0.00395 0.68 AML other m 2013-07-03T13:30:36.69
IV.SGTA.HHN. ML:4.7 0.001005 0.86 AML other m 2013-07-03T13:30:12.25
IV.SGTA.HNN. ML:5.2 0.00291 1.56 AML other m 2013-07-03T13:29:39.01
IV.SGTA.HHE. ML:4.9 0.00155 0.76 AML other m 2013-07-03T13:30:02.83
IV.SGTA.HNE. ML:4.9 0.0015375 1.58 AML other m 2013-07-03T13:30:48.99
IV.SIRI.HNE. ML:4.7 0.0014715 1.02 AML other m 2013-07-03T13:30:46.81
IV.SIRI.HNN. ML:4.6 0.0011245 0.82 AML other m 2013-07-03T13:30:35.98
IV.SIRI.HHN. ML:4.6 0.001165 0.82 AML other m 2013-07-03T13:30:35.98
IV.SIRI.HHE. ML:4.7 0.001485 1 AML other m 2013-07-03T13:30:46.80
IV.SLCN.HHN. ML:4.9 0.002115 1.08 AML other m 2013-07-03T13:30:40.05
IV.SLCN.HNN. ML:4.9 0.002105 0.56 AML other m 2013-07-03T13:30:40.05
IV.SLCN.HHE. ML:5 0.0026 0.62 AML other m 2013-07-03T13:30:44.21
IV.SLCN.HNE. ML:5 0.002515 0.6 AML other m 2013-07-03T13:30:44.22
IV.TERO.HNN. ML:0 0.001035 1.16 AML other m 2013-07-03T13:31:21.10
IV.TERO.HNE. ML:0 0.00181 1.58 AML other m 2013-07-03T13:31:20.01
IV.TERO.HHN. ML:0 0.0004235 1.16 AML other m 2013-07-03T13:31:20.51
IV.TERO.HHE. ML:0 0.0003565 0.58 AML other m 2013-07-03T13:31:27.37
IV.VULT.HHE. ML:4.8 0.001725 0.92 AML other m 2013-07-03T13:30:09.23
IV.VULT.HNE. ML:4.8 0.001705 0.94 AML other m 2013-07-03T13:30:09.23
IV.VULT.HHN. ML:4.9 0.00213 0.86 AML other m 2013-07-03T13:30:11.92
IV.VULT.HNN. ML:4.9 0.00212 0.88 AML other m 2013-07-03T13:30:11.93
IV.VVLD.HHN. ML:0 0.00115 0.8 AML other m 2013-07-03T13:31:21.49
IV.VVLD.HHE. ML:0 0.0008975 1.2 AML other m 2013-07-03T13:31:18.36
TDMT - Time Domain Moment Tensor

Dettagli TDMT

Campo Valore
Magnitudo4.5
Momento Scalare7.33774E+22 dyne-cm
Profondità calcolata7 km
QualitàBb
Variance Reduction59.69%
Doppia Coppia4%
CLVD96%
ISO0%
Modello utilizzatoCIA
Modeautomatic
Statuspreliminary

Componenti Momento Tensore

Componente Valore
Mrr-3.18197E+22
Mtt2.01577E+22
Mpp1.1662E+22
Mrt-3.58687E+22
Mrp-3.28323E+22
Mtp6.19663E+22

Piani Nodali

Nome Strike Dip Rake
PN15266-84
PN221625-104

Meccanismo Focale

Focal Mechanism

psmeca (Documentazione GMT)

21.8733 40.3738 7 52 66 -84 216 25 -104 7.33774 22 22.3733 40.8738

Distribuzione Stazioni

Distribuzione Stazioni

Dettagli stazioni TDMT

Sta Dist Azi V R zcor
MESG 341.9 275.3 65.84% 220
SCTE 291.8 264.5 54.69% 214
PDG 316 317.1 32.62% 220
VTS 273.9 24.1 73.74% 215
Meccanismi focali nell'area
Download
Tipo Descrizione Link
QuakeML - small Event, Origin, FocalMechanism Download
QuakeML - full Event, Origin, FocalMechanism, Amplitude, Arrival, Pick, Station Magnitude Download